Change the Weather History Date:

Tuesday, May 8, 2012

  Actual Average (KALS) Record (KALS)
Temperature  
Mean Temperature 28 °F 49 °F  
Max Temperature 35 °F 67 °F 82 °F (1989)
Min Temperature 21 °F 31 °F 16 °F (1984)
Degree Days  
Heating Degree Days 37 16  
Month to date heating degree days 137  
Since 1 July heating degree days 8137  
Cooling Degree Days 0 0  
Month to date cooling degree days 0  
Year to date cooling degree days 0  
Moisture  
Dew Point 24 °F    
Average Humidity 84    
Maximum Humidity 100    
Minimum Humidity 56    
Precipitation  
Precipitation 0.00 in 0.02 in 0.56 in (1957)
Month to date precipitation 0.16  
Year to date precipitation 1.80  
Snow  
Snow 0.00 in 0.10 in 0.20 in (1986)
Month to date snowfall 0.5  
Since 1 July snowfall 27.2  
Snow Depth -    
Sea Level Pressure  
Sea Level Pressure 30.35 in    
Wind  
Wind Speed 8 mph (NE)    
Max Wind Speed 15 mph    
Max Gust Speed 21 mph    
Visibility 8 miles    
Events Fog , Thunderstorm    
T = Trace of Precipitation, MM = Missing Value Source: NWS Daily Summary

Daily Weather History Graph

Daily Weather History Graph

Search for Another Location

Airport or City:

Trip Planner

Search our weather history database for the weather conditions in past years. The results will help you decide how hot, cold, wet, or windy it might be!

Date:

Astronomy

May. 08, 2012 Rise Set
Actual Time 6:04 AM MDT 8:03 PM MDT
Civil Twilight 5:35 AM MDT 8:32 PM MDT
Nautical Twilight 5:00 AM MDT 9:07 PM MDT
Astronomical Twilight 4:22 AM MDT 9:45 PM MDT
Moon 11:15 PM MDT (5/8) 8:16 AM MDT (5/8)
Length of Visible Light 14h 57m
Length of Day
13h 59m
Waning Gibbous, 90% of the Moon is Illuminated
May 8
Waning Gibbous
May 12
Last Quarter
May 20
New
May 28
First Quarter
Jun 4
Full

Hourly Weather History & Observations

Time (MDT) Temp. Windchill Dew Point Humidity Pressure Visibility Wind Dir Wind Speed Gust Speed Precip Events Conditions
12:15 AM 24.8 °F 12.4 °F 24.8 °F 100% 30.32 in 0.8 mi NE 15.0 mph - N/A   Overcast
12:35 AM 24.8 °F 12.4 °F 24.8 °F 100% 30.33 in 0.5 mi NE 15.0 mph 20.7 mph N/A Fog Light Freezing Fog
12:55 AM 24.8 °F 14.6 °F 24.8 °F 100% 30.32 in 0.5 mi ENE 10.4 mph - N/A Fog Light Freezing Fog
1:15 AM 23.0 °F 12.4 °F 23.0 °F 100% 30.33 in 1.8 mi NE 10.4 mph - N/A   Mostly Cloudy
1:34 AM 23.0 °F 13.9 °F 23.0 °F 100% 30.32 in 10.0 mi NE 8.1 mph - N/A   Scattered Clouds
1:55 AM 23.0 °F 12.4 °F 21.2 °F 93% 30.32 in 10.0 mi NE 10.4 mph - N/A   Clear
2:15 AM 23.0 °F 11.1 °F 23.0 °F 100% 30.31 in 10.0 mi NE 12.7 mph - N/A   Clear
2:35 AM 23.0 °F 11.1 °F 21.2 °F 93% 30.31 in 10.0 mi NE 12.7 mph 17.3 mph N/A   Clear
3:15 AM 23.0 °F 15.8 °F 21.2 °F 93% 30.30 in 10.0 mi ENE 5.8 mph - N/A   Clear
3:35 AM 23.0 °F 18.4 °F 21.2 °F 93% 30.30 in 10.0 mi NE 3.5 mph - N/A   Clear
3:55 AM 24.8 °F - 19.4 °F 80% 30.29 in 10.0 mi North - - N/A   Clear
4:15 AM 24.8 °F 19.1 °F 17.6 °F 74% 30.29 in 10.0 mi NE 4.6 mph - N/A   Clear
4:35 AM 24.8 °F 17.9 °F 17.6 °F 74% 30.29 in 10.0 mi NE 5.8 mph - N/A   Clear
4:55 AM 24.8 °F 19.1 °F 19.4 °F 80% 30.29 in 10.0 mi ENE 4.6 mph - N/A   Clear
5:15 AM 24.8 °F 14.0 °F 19.4 °F 80% 30.29 in 10.0 mi SW 11.5 mph - N/A   Clear
5:35 AM 24.8 °F 16.9 °F 19.4 °F 80% 30.29 in 10.0 mi SW 6.9 mph - N/A   Clear
5:55 AM 23.0 °F 14.7 °F 19.4 °F 86% 30.29 in 10.0 mi SW 6.9 mph - N/A   Clear
6:15 AM 23.0 °F 13.9 °F 21.2 °F 93% 30.30 in 10.0 mi SSW 8.1 mph - N/A   Clear
6:35 AM 21.2 °F - 19.4 °F 93% 30.31 in 1.2 mi Calm Calm - N/A   Scattered Clouds
6:55 AM 21.2 °F 16.4 °F 19.4 °F 93% 30.32 in 1.0 mi East 3.5 mph - N/A   Mostly Cloudy
7:15 AM 21.2 °F 16.4 °F 19.4 °F 93% 30.32 in 0.2 mi NE 3.5 mph - N/A Fog Light Freezing Fog
7:35 AM 21.2 °F 14.9 °F 21.2 °F 100% 30.33 in 0.2 mi NNE 4.6 mph - N/A Fog Light Freezing Fog
7:55 AM 21.2 °F 14.9 °F 21.2 °F 100% 30.34 in 0.2 mi NNE 4.6 mph - N/A Fog Light Freezing Fog
8:15 AM 23.0 °F 18.4 °F 21.2 °F 93% 30.34 in 0.2 mi NE 3.5 mph - N/A Fog Light Freezing Fog
8:35 AM 23.0 °F - 23.0 °F 100% 30.35 in 0.2 mi North - - N/A Fog Light Freezing Fog
8:55 AM 23.0 °F 18.4 °F 23.0 °F 100% 30.35 in 0.2 mi ENE 3.5 mph - N/A Fog Light Freezing Fog
9:15 AM 24.8 °F 20.5 °F 23.0 °F 93% 30.35 in 0.2 mi NE 3.5 mph - N/A Fog Light Freezing Fog
9:35 AM 24.8 °F 19.1 °F 23.0 °F 93% 30.36 in 0.2 mi NE 4.6 mph - N/A Fog Light Freezing Fog
9:55 AM 24.8 °F - 23.0 °F 93% 30.36 in 0.5 mi Calm Calm - N/A Fog Light Freezing Fog
10:15 AM 26.6 °F 22.6 °F 24.8 °F 93% 30.36 in 0.2 mi ENE 3.5 mph - N/A Fog Light Freezing Fog
10:35 AM 28.4 °F - 26.6 °F 93% 30.37 in 0.5 mi North - - N/A Fog Light Freezing Fog
11:15 AM 28.4 °F - 26.6 °F 93% 30.37 in 5.0 mi North - - N/A   Overcast
11:35 AM 28.4 °F 23.3 °F 26.6 °F 93% 30.38 in 10.0 mi ENE 4.6 mph - N/A   Overcast
11:55 AM 30.2 °F - 28.4 °F 93% 30.38 in 10.0 mi North - - N/A   Overcast
12:15 PM 30.2 °F - 28.4 °F 93% 30.38 in 10.0 mi North - - N/A   Overcast
12:35 PM 32.0 °F 25.6 °F 28.4 °F 87% 30.39 in 10.0 mi East 6.9 mph - N/A   Overcast
12:55 PM 32.0 °F 25.6 °F 28.4 °F 87% 30.39 in 10.0 mi NNE 6.9 mph - N/A   Mostly Cloudy
1:15 PM 32.0 °F - 28.4 °F 87% 30.38 in 10.0 mi Calm Calm - N/A   Mostly Cloudy
1:35 PM 32.0 °F - 30.2 °F 93% 30.38 in 10.0 mi North - - N/A   Mostly Cloudy
1:55 PM 32.0 °F - 30.2 °F 93% 30.38 in 10.0 mi North - - N/A   Scattered Clouds
2:15 PM 32.0 °F - 28.4 °F 87% 30.38 in 10.0 mi North - - N/A   Scattered Clouds
2:35 PM 32.0 °F 24.8 °F 28.4 °F 87% 30.38 in 10.0 mi ENE 8.1 mph - N/A   Clear
2:55 PM 33.8 °F 25.3 °F 28.4 °F 81% 30.37 in 10.0 mi NE 11.5 mph - N/A   Clear
3:15 PM 33.8 °F 26.4 °F 30.2 °F 87% 30.37 in 10.0 mi East 9.2 mph - N/A   Scattered Clouds
3:35 PM 33.8 °F - 28.4 °F 81% 30.37 in 10.0 mi North - - N/A   Scattered Clouds
3:55 PM 33.8 °F 25.8 °F 28.4 °F 81% 30.36 in 10.0 mi NNE 10.4 mph - N/A   Scattered Clouds
4:15 PM 33.8 °F - 26.6 °F 75% 30.36 in 10.0 mi North - - N/A   Clear
4:35 PM 35.6 °F - 28.4 °F 75% 30.35 in 10.0 mi North - - N/A   Scattered Clouds
4:55 PM 35.6 °F - 24.8 °F 65% 30.35 in 10.0 mi North - - N/A   Clear
5:15 PM 35.6 °F - 24.8 °F 65% 30.36 in 10.0 mi North - - N/A   Scattered Clouds
5:35 PM 35.6 °F 31.7 °F 23.0 °F 60% 30.36 in 10.0 mi ENE 4.6 mph - N/A   Scattered Clouds
5:55 PM 33.8 °F 27.7 °F 23.0 °F 65% 30.35 in 10.0 mi NNE 6.9 mph - N/A   Clear
6:15 PM 35.6 °F - 21.2 °F 56% 30.35 in 10.0 mi North - - N/A   Clear
6:35 PM 33.8 °F - 21.2 °F 60% 30.35 in 10.0 mi North - - N/A   Clear
6:55 PM 33.8 °F 27.7 °F 21.2 °F 60% 30.36 in 10.0 mi NNE 6.9 mph - N/A Thunderstorm Clear
7:15 PM 32.0 °F - 19.4 °F 60% 30.35 in 10.0 mi North - - N/A   Clear
7:35 PM 32.0 °F - 19.4 °F 60% 30.36 in 10.0 mi North - - N/A   Clear
7:55 PM 32.0 °F 24.2 °F 19.4 °F 60% 30.36 in 10.0 mi NNE 9.2 mph - N/A   Clear
8:15 PM 32.0 °F 22.5 °F 21.2 °F 64% 30.36 in 10.0 mi NNE 12.7 mph 19.6 mph N/A   Clear
8:35 PM 32.0 °F 24.2 °F 23.0 °F 69% 30.37 in 10.0 mi North 9.2 mph - N/A   Clear
8:55 PM 32.0 °F 24.8 °F 21.2 °F 64% 30.38 in 10.0 mi NNE 8.1 mph - N/A Thunderstorm Clear
9:15 PM 32.0 °F 26.4 °F 21.2 °F 64% 30.38 in 10.0 mi North 5.8 mph - N/A   Clear
9:35 PM 30.2 °F 26.7 °F 24.8 °F 80% 30.40 in 10.0 mi WSW 3.5 mph - N/A   Clear
9:55 PM 30.2 °F - 24.8 °F 80% 30.40 in 10.0 mi Calm Calm - N/A   Clear
10:15 PM 30.2 °F 25.4 °F 23.0 °F 75% 30.40 in 10.0 mi WSW 4.6 mph - N/A   Clear
10:35 PM 30.2 °F 24.3 °F 24.8 °F 80% 30.40 in 10.0 mi WSW 5.8 mph - N/A   Clear
11:15 PM 30.2 °F 22.6 °F 24.8 °F 80% 30.41 in 10.0 mi WSW 8.1 mph - N/A   Clear
11:35 PM 30.2 °F 21.9 °F 26.6 °F 86% 30.41 in 10.0 mi SW 9.2 mph - N/A   Clear
11:55 PM 30.2 °F 21.9 °F 24.8 °F 80% 30.41 in 10.0 mi WSW 9.2 mph - N/A   Clear